Location: Aucun
(42.9667°N, 0.1667°W)
Time: 12:32:22
(UTC+00:00)

Daily predictions for brighter satellites

Satellite Brightness Start Highest point End
(mag) Time Altitude Azimuth Time Altitude Azimuth Time Altitude Azimuth
BREEZE-M DEB (TANK) 4.3 16:48:01 10° W 16:51:47 58° N 17:04:12 10° ENE
Cosmos 2298 Rocket 4.4 16:54:20 10° NNW 16:59:39 74° WSW 17:04:56 10° SSE
Cosmos 2150 Rocket 4.2 16:54:34 10° NNW 16:59:44 80° WSW 17:04:52 10° SSE
GENESIS II 4.1 16:55:52 10° NNW 16:59:50 79° NE 17:03:42 10° SE
Cosmos 1867 3.8 16:54:58 10° SSW 17:00:13 53° ESE 17:05:32 10° NE
Cosmos 44 4.3 16:55:59 10° NNW 17:00:36 30° NE 17:05:18 10° ESE
Cosmos 2154 Rocket 4.0 16:55:27 10° N 17:01:50 78° E 17:08:11 10° S
CZ-4B R/B 3.3 16:57:24 10° SE 17:02:34 53° ENE 17:07:43 10° N
Cosmos 2237 Rocket 2.3 16:57:35 10° SSW 17:03:13 84° WNW 17:08:54 10° NNE
USA 267 4.2 16:57:52 10° ENE 17:03:23 30° NNE 17:08:56 10° NW
Cosmos 1633 Rocket 4.1 17:00:35 10° NNE 17:04:05 23° ENE 17:07:35 10° SE
Cosmos 2221 3.7 17:00:28 10° SSW 17:04:38 45° WNW 17:08:48 10° N
CORIOLIS 4.4 17:00:05 10° SE 17:05:14 47° ENE 17:10:26 10° N
Cosmos 1125 Rocket 3.5 17:00:22 10° NNW 17:05:36 81° ENE 17:10:49 10° SSE
Cosmos 1818 3.9 17:02:23 10° NW 17:07:51 73° WSW 17:13:15 10° SSE
Lacrosse 5 rocket 1.7 17:05:33 10° SSW 17:09:00 38° SE 17:12:16 11° ENE
Cosmos 1862 3.8 17:06:52 10° NNW 17:10:52 65° W 17:14:48 10° S
H-2A R/B 2.7 17:10:14 10° S 17:14:33 79° WSW 17:18:45 10° NNW
Cosmos 2341 Rocket 4.1 17:09:11 10° N 17:15:20 54° ENE 17:21:31 10° SSE
Cosmos 2369 Rocket 3.6 17:12:30 10° N 17:16:16 18° NE 17:19:59 10° E
USA 281 4.1 17:12:41 10° E 17:17:50 25° NE 17:22:59 10° N
CZ-2C R/B 4.3 17:17:28 10° ESE 17:20:40 17° ENE 17:23:48 10° NNE
Cosmos 1980 4.4 17:16:38 10° SW 17:22:13 57° WNW 17:27:50 10° NNE
BREEZE-M DEB (TANK) 1.6 17:22:00 10° WSW 17:25:01 85° NNW 17:26:18 19° ENE
FengYun 1-2 T 4.2 17:22:20 10° SSE 17:27:45 59° ENE 17:33:10 10° N
Cosmos 2285 Rocket 4.3 17:21:54 10° N 17:28:01 45° ENE 17:34:04 10° SE
SL-8 Rocket 4.1 17:22:26 10° N 17:28:31 51° ENE 17:34:35 10° SSE
Envisat 3.8 17:24:49 10° S 17:29:47 55° W 17:34:47 10° NNW
Cosmos 1943 Rocket 2.8 17:28:42 10° N 17:33:42 33° NE 17:38:42 10° ESE
CREW DRAGON DEMO-1 DEB 2.7 17:33:14 10° NW 17:36:11 62° NNE 17:38:11 18° ESE
YAOGAN 1 4.0 17:36:42 17° ENE 17:36:42 17° ENE 17:39:18 10° NNE
BREEZE-M TANK 3.7 17:32:58 10° WNW 17:38:18 44° SW 17:41:27 10° SE
CZ-4 R/B 2.8 17:39:48 19° NE 17:39:48 19° NE 17:42:04 10° NNE
Cosmos 2181 Rocket 4.0 17:35:11 10° S 17:41:32 65° E 17:47:50 10° NNE
Cosmos 773 Rocket 4.2 17:36:32 10° S 17:41:34 49° ESE 17:46:28 11° NNE
Cosmos 1470 Rocket 4.2 17:38:44 10° N 17:42:39 32° ENE 17:46:30 10° SE
Cosmos 1939 Rocket 3.0 17:41:27 10° SE 17:45:08 43° ENE 17:48:51 10° N
IRS-1C Rocket 4.3 17:42:38 10° SE 17:47:39 46° ENE 17:52:40 10° N
Cosmos 2297 3.6 17:42:39 10° NNW 17:48:20 71° ENE 17:54:02 10° SSE
Sich 1 3.6 17:44:30 10° NNW 17:48:50 60° W 17:53:06 10° S
Cosmos 1515 Rocket 4.2 17:44:59 10° SSE 17:48:51 32° E 17:51:09 20° NE
Meteor 1-4 Rocket 3.1 17:45:53 10° SSE 17:49:14 36° E 17:50:34 26° NE
COSMO-SKYMED 1 2.8 17:47:11 10° NNE 17:51:24 48° E 17:55:36 10° S
SL-16 R/B 2.2 17:47:40 10° SSW 17:53:20 89° ESE 17:59:02 10° NNE
Cosmos 1606 3.9 17:49:36 10° SSW 17:53:20 44° WNW 17:57:06 10° N
SMAP 4.0 17:49:05 10° S 17:53:37 51° W 17:58:10 10° NNW
SAR-Lupe-1 4.4 17:52:40 26° NE 17:54:13 41° E 17:57:37 10° S
USA 81 3.9 17:49:44 10° N 17:55:02 74° E 18:00:18 10° S
FALCON 9 R/B 2.8 17:55:06 10° SSW 17:56:23 14° SSE 17:57:03 13° SSE
Cosmos 1151 Rocket 2.9 17:53:52 10° S 17:58:08 83° E 18:02:26 10° N
H-2A R/B 2.9 17:59:31 26° ENE 18:00:06 27° ENE 18:04:23 10° N
SL-24 DEB 4.5 17:56:54 10° NNE 18:01:30 47° E 18:06:01 10° SSE
ISS -1.9 17:59:13 10° WNW 18:01:49 20° N 18:02:36 19° N
ERS-2 2.2 18:00:54 11° N 18:04:28 78° WNW 18:08:07 10° SSW
BREEZE-M DEB (TANK) 3.6 18:02:31 10° SSW 18:05:38 21° SSE 18:06:01 21° SE
Okean-O 3.0 18:02:18 10° SE 18:06:25 40° ENE 18:10:35 10° N
X-37B 1.6 18:05:27 10° SW 18:08:20 33° SSE 18:08:23 32° SSE
TIMED 4.4 18:07:06 10° S 18:11:24 63° ESE 18:13:09 34° NE
Okean O Rocket 3.3 18:08:14 10° SSW 18:12:13 35° W 18:16:14 10° NNW
Cosmos 1933 Rocket 3.8 18:08:49 10° N 18:13:09 47° ENE 18:17:26 10° SSE
Cosmos 1328 Rocket 3.6 18:09:17 10° SSW 18:13:35 77° W 18:17:56 10° N
USA 215 3.2 18:09:24 23° NE 18:13:46 87° SE 18:20:19 10° SW
Cosmos 1666 Rocket 4.5 18:09:51 10° NNW 18:14:08 51° W 18:18:25 10° S
SKYMED 3 4.5 18:11:26 12° NNE 18:15:29 89° ESE 18:19:50 10° SSW
CZ-4B R/B 2.7 18:15:00 12° N 18:17:33 36° WNW 18:20:27 10° SW
Meteor 1-14 Rocket 4.3 18:13:20 10° N 18:19:17 67° ENE 18:25:13 10° SSE
Meteor 1-26 Rocket 4.4 18:14:12 10° S 18:20:13 84° W 18:26:17 10° N
Cosmos 2218 Rocket 4.1 18:14:27 10° N 18:20:36 77° W 18:26:44 10° S
Cosmos 1782 2.8 18:22:09 10° SSW 18:26:05 77° W 18:28:09 27° N
Cosmos 1689 Rocket 3.4 18:27:44 34° SSW 18:27:44 34° SSW 18:29:32 10° SSW
Cosmos 2366 rocket 4.2 18:21:05 10° NNW 18:27:16 71° W 18:33:21 10° S
CSL-04 Debris 4.4 18:30:39 46° ENE 18:30:49 46° ENE 18:36:03 10° N
CZ-3B R/B 2.8 18:31:04 10° SW 18:32:52 26° SSW 18:32:52 26° SSW
Cosmos 1602 4.3 18:32:35 10° NNW 18:36:28 58° W 18:40:16 10° S
CZ-2D R/B 3.7 18:33:27 10° S 18:37:13 61° W 18:41:02 10° NNW
Cosmos 1538 Rocket 4.0 18:34:00 10° SSW 18:39:21 88° WNW 18:41:40 36° NNE
SKYMED 2 4.4 18:35:45 13° N 18:39:29 50° WNW 18:43:40 10° SSW
Cosmos 489 Rocket 4.5 18:34:33 10° SSW 18:40:45 80° WNW 18:45:07 21° NNE
Cosmos 44 4.4 18:36:56 10° NW 18:42:05 50° WSW 18:47:17 10° S
USA 267 3.2 18:44:00 48° E 18:45:40 64° NE 18:52:07 10° NW
Meteor 1-10 Rocket 4.4 18:40:29 10° S 18:45:10 51° SE 18:45:10 51° SE
Lacrosse 5 rocket 2.7 18:45:00 10° W 18:47:55 27° NW 18:47:55 27° NW
Meteor 1-5 Rocket 4.2 18:42:26 10° N 18:48:22 69° ENE 18:50:43 37° SSE
Cosmos 1603 3.5 18:42:49 10° SSW 18:48:23 67° ESE 18:48:33 67° E
CSL-04 Rocket 4.2 18:52:18 43° N 18:52:18 43° N 18:55:57 10° N
Cosmos 2239 Rocket 4.3 18:45:59 10° N 18:52:07 66° E 18:58:15 10° SSE
Helios 1A Rocket 3.9 18:55:12 41° NW 18:55:12 41° NW 18:58:02 10° NNW
BREEZE-M DEB (TANK) 3.3 18:46:09 10° SW 18:54:10 74° S 18:54:10 74° S
MOS 1 Rocket 3.6 18:53:09 33° N 18:55:41 82° WNW 19:01:05 10° SSW
Cosmos 1943 3.2 18:50:30 10° SSW 18:55:35 64° SE 18:55:35 64° SE
CZ-2C R/B 3.4 18:55:04 10° S 19:00:08 61° W 19:04:59 10° NNW
Cosmos 2369 Rocket 2.1 18:55:20 10° NNW 19:01:04 85° WSW 19:01:56 65° SSE
USA 281 3.3 18:55:12 10° SSE 19:01:44 74° WSW 19:08:20 10° NNW
YAOGAN 1 4.1 19:13:52 30° NW 19:13:52 30° NW 19:16:22 10° NNW
ATLAS CENTAUR R/B 4.4 18:54:16 10° NW 19:12:56 68° WSW 19:17:14 29° SSE
CZ-4 R/B 3.5 19:15:50 22° NW 19:15:50 22° NW 19:17:39 10° NNW
Nadezhda 3 Rocket 4.2 19:08:03 10° SSW 19:14:23 72° W 19:19:08 19° N
Cosmos 1943 Rocket 3.5 19:12:22 10° NW 19:17:28 38° WSW 19:22:34 10° S
CENTAUR R/B 4.2 19:22:40 10° SSW 19:23:58 18° S 19:23:58 18° S
H-2A R/B 3.3 19:40:09 38° WNW 19:40:09 38° WNW 19:44:15 10° NNW
USA 215 4.3 19:56:45 38° NNW 19:56:45 38° NNW 20:02:17 10° W
